Tracking 19709 objects as of 18-Jun-2019
HD Live streaming from Space Station
objects crossing your sky now

WESTAR 5

Track WESTAR 5 now!
WESTAR 5 is classified as:


NORAD ID: 13269
Int'l Code: 1982-058A
Perigee: 36,038.7 km
Apogee: 36,144.5 km
Inclination: 15.3 °
Period: 1,451.3 minutes
Semi major axis: 42462 km
RCS: 3.0486 m2 (large)
Launch date: June 9, 1982
Source: United States (US)
Launch site: AIR FORCE EASTERN TEST RANGE (AFETR)
aabbcc
Your satellite tracking list
Your tracking list is empty




NASA's NSSDC Master Catalog

Two Line Element Set (TLE):
1 13269U 82058A   19169.31055095 -.00000225  00000-0  00000+0 0  9997
2 13269  15.2556 357.8587 0012453 215.6778 157.6581  0.99218544 94177
Source of the keplerian elements: AFSPC